Year,Month,Day,Hour,Minute,Value (Times are PST for temperature in C)
2006,06,29,00,00,12.40
2006,06,29,00,01,12.40
2006,06,29,00,02,12.40
2006,06,29,00,03,12.40
2006,06,29,00,04,12.30
2006,06,29,00,05,12.30
2006,06,29,00,06,12.30
2006,06,29,00,07,12.30
2006,06,29,00,08,12.30
2006,06,29,00,09,12.30
2006,06,29,00,10,12.30
2006,06,29,00,11,12.30
2006,06,29,00,12,12.30
2006,06,29,00,13,12.30
2006,06,29,00,14,12.30
2006,06,29,00,15,12.30
2006,06,29,00,16,12.30
2006,06,29,00,17,12.30
2006,06,29,00,18,12.30
2006,06,29,00,19,12.30
2006,06,29,00,20,12.30
2006,06,29,00,21,12.30
2006,06,29,00,22,12.30
2006,06,29,00,23,12.30
2006,06,29,00,24,12.30
2006,06,29,00,25,12.30
2006,06,29,00,26,12.30
2006,06,29,00,27,12.30
2006,06,29,00,28,12.30
2006,06,29,00,29,12.20
2006,06,29,00,30,12.20
2006,06,29,00,31,12.20
2006,06,29,00,32,12.20
2006,06,29,00,33,12.20
2006,06,29,00,34,12.20
2006,06,29,00,35,12.20
2006,06,29,00,36,12.20
2006,06,29,00,37,12.10
2006,06,29,00,38,12.10
2006,06,29,00,39,12.10
2006,06,29,00,40,12.10
2006,06,29,00,41,12.10
2006,06,29,00,42,12.10
2006,06,29,00,43,12.10
2006,06,29,00,44,12.10
2006,06,29,00,45,12.10
2006,06,29,00,46,12.00
2006,06,29,00,47,12.00
2006,06,29,00,48,12.00
2006,06,29,00,49,12.00
2006,06,29,00,50,12.00
2006,06,29,00,51,12.00
2006,06,29,00,52,12.00
2006,06,29,00,53,11.90
2006,06,29,00,54,11.90
2006,06,29,00,55,11.90
2006,06,29,00,56,11.90
2006,06,29,00,57,11.90
2006,06,29,00,58,11.80
2006,06,29,00,59,11.80
2006,06,29,01,00,11.80
2006,06,29,01,01,11.80
2006,06,29,01,02,11.80
2006,06,29,01,03,11.80
2006,06,29,01,04,11.80
2006,06,29,01,05,11.80
2006,06,29,01,06,11.80
2006,06,29,01,07,11.80
2006,06,29,01,08,11.80
2006,06,29,01,09,11.80
2006,06,29,01,10,11.80
2006,06,29,01,11,11.80
2006,06,29,01,12,11.80
2006,06,29,01,13,11.80
2006,06,29,01,14,11.80
2006,06,29,01,15,11.80
2006,06,29,01,16,11.80
2006,06,29,01,17,11.80
2006,06,29,01,18,11.80
2006,06,29,01,19,11.80
2006,06,29,01,20,11.80
2006,06,29,01,21,11.80
2006,06,29,01,22,11.80
2006,06,29,01,23,11.80
2006,06,29,01,24,11.80
2006,06,29,01,25,11.80
2006,06,29,01,26,11.80
2006,06,29,01,27,11.80
2006,06,29,01,28,11.70
2006,06,29,01,29,11.70
2006,06,29,01,30,11.70
2006,06,29,01,31,11.70
2006,06,29,01,32,11.70
2006,06,29,01,33,11.70
2006,06,29,01,34,11.70
2006,06,29,01,35,11.60
2006,06,29,01,36,11.60
2006,06,29,01,37,11.60
2006,06,29,01,38,11.70
2006,06,29,01,39,11.70
2006,06,29,01,40,11.60
2006,06,29,01,41,11.60
2006,06,29,01,42,11.60
2006,06,29,01,43,11.60
2006,06,29,01,44,11.60
2006,06,29,01,45,11.60
2006,06,29,01,46,11.60
2006,06,29,01,47,11.60
2006,06,29,01,48,11.60
2006,06,29,01,49,11.60
2006,06,29,01,50,11.60
2006,06,29,01,51,11.60
2006,06,29,01,52,11.70
2006,06,29,01,53,11.70
2006,06,29,01,54,11.70
2006,06,29,01,55,11.70
2006,06,29,01,56,11.70
2006,06,29,01,57,11.60
2006,06,29,01,58,11.60
2006,06,29,01,59,11.60
2006,06,29,02,00,11.60
2006,06,29,02,01,11.60
2006,06,29,02,02,11.60
2006,06,29,02,03,11.60
2006,06,29,02,04,11.50
2006,06,29,02,05,11.40
2006,06,29,02,06,11.40
2006,06,29,02,07,11.40
2006,06,29,02,08,11.40
2006,06,29,02,09,11.40
2006,06,29,02,10,11.40
2006,06,29,02,11,11.40
2006,06,29,02,12,11.40
2006,06,29,02,13,11.30
2006,06,29,02,14,11.30
2006,06,29,02,15,11.30
2006,06,29,02,16,11.30
2006,06,29,02,17,11.30
2006,06,29,02,18,11.30
2006,06,29,02,19,11.30
2006,06,29,02,20,11.30
2006,06,29,02,21,11.30
2006,06,29,02,22,11.20
2006,06,29,02,23,11.20
2006,06,29,02,24,11.20
2006,06,29,02,25,11.20
2006,06,29,02,26,11.20
2006,06,29,02,27,11.20
2006,06,29,02,28,11.20
2006,06,29,02,29,11.20
2006,06,29,02,30,11.20
2006,06,29,02,31,11.20
2006,06,29,02,32,11.20
2006,06,29,02,33,11.20
2006,06,29,02,34,11.20
2006,06,29,02,35,11.20
2006,06,29,02,36,11.10
2006,06,29,02,37,11.10
2006,06,29,02,38,11.10
2006,06,29,02,39,11.10
2006,06,29,02,40,11.10
2006,06,29,02,41,11.10
2006,06,29,02,42,11.10
2006,06,29,02,43,11.10
2006,06,29,02,44,11.10
2006,06,29,02,45,11.10
2006,06,29,02,46,11.10
2006,06,29,02,47,11.10
2006,06,29,02,48,11.10
2006,06,29,02,49,11.10
2006,06,29,02,50,11.10
2006,06,29,02,51,11.10
2006,06,29,02,52,11.10
2006,06,29,02,53,11.10
2006,06,29,02,54,11.10
2006,06,29,02,55,11.10
2006,06,29,02,56,11.10
2006,06,29,02,57,11.10
2006,06,29,02,58,11.10
2006,06,29,02,59,11.10
2006,06,29,03,00,11.10
2006,06,29,03,01,11.10
2006,06,29,03,02,11.10
2006,06,29,03,03,11.10
2006,06,29,03,04,11.10
2006,06,29,03,05,11.10
2006,06,29,03,06,11.10
2006,06,29,03,07,11.10
2006,06,29,03,08,11.10
2006,06,29,03,09,11.10
2006,06,29,03,10,11.10
2006,06,29,03,11,11.10
2006,06,29,03,12,11.10
2006,06,29,03,13,11.10
2006,06,29,03,14,11.10
2006,06,29,03,15,11.10
2006,06,29,03,16,11.10
2006,06,29,03,17,11.10
2006,06,29,03,18,11.10
2006,06,29,03,19,11.10
2006,06,29,03,20,11.10
2006,06,29,03,21,11.10
2006,06,29,03,22,11.10
2006,06,29,03,23,11.10
2006,06,29,03,24,11.10
2006,06,29,03,25,11.10
2006,06,29,03,26,11.10
2006,06,29,03,27,11.10
2006,06,29,03,28,11.10
2006,06,29,03,29,11.10
2006,06,29,03,30,11.10
2006,06,29,03,31,11.10
2006,06,29,03,32,11.10
2006,06,29,03,33,11.10
2006,06,29,03,34,11.10
2006,06,29,03,35,11.10
2006,06,29,03,36,11.10
2006,06,29,03,37,11.00
2006,06,29,03,38,10.90
2006,06,29,03,39,10.90
2006,06,29,03,40,10.90
2006,06,29,03,41,10.90
2006,06,29,03,42,10.90
2006,06,29,03,43,10.90
2006,06,29,03,44,10.90
2006,06,29,03,45,10.90
2006,06,29,03,46,10.90
2006,06,29,03,47,10.80
2006,06,29,03,48,10.80
2006,06,29,03,49,10.80
2006,06,29,03,50,10.80
2006,06,29,03,51,10.70
2006,06,29,03,52,10.70
2006,06,29,03,53,10.70
2006,06,29,03,54,10.70
2006,06,29,03,55,10.60
2006,06,29,03,56,10.60
2006,06,29,03,57,10.60
2006,06,29,03,58,10.60
2006,06,29,03,59,10.60
2006,06,29,04,00,10.60
2006,06,29,04,01,10.60
2006,06,29,04,02,10.50
2006,06,29,04,03,10.40
2006,06,29,04,04,10.40
2006,06,29,04,05,10.40
2006,06,29,04,06,10.40
2006,06,29,04,07,10.40
2006,06,29,04,08,10.40
2006,06,29,04,09,10.40
2006,06,29,04,10,10.30
2006,06,29,04,11,10.30
2006,06,29,04,12,10.30
2006,06,29,04,13,10.20
2006,06,29,04,14,10.20
2006,06,29,04,15,10.20
2006,06,29,04,16,10.20
2006,06,29,04,17,10.10
2006,06,29,04,18,10.10
2006,06,29,04,19,10.10
2006,06,29,04,20,10.10
2006,06,29,04,21,10.10
2006,06,29,04,22,10.10
2006,06,29,04,23,10.00
2006,06,29,04,24,9.90
2006,06,29,04,25,9.90
2006,06,29,04,26,9.90
2006,06,29,04,27,9.90
2006,06,29,04,28,9.90
2006,06,29,04,29,9.90
2006,06,29,04,30,9.90
2006,06,29,04,31,9.90
2006,06,29,04,32,9.80
2006,06,29,04,33,9.80
2006,06,29,04,34,9.80
2006,06,29,04,35,9.80
2006,06,29,04,36,9.80
2006,06,29,04,37,9.80
2006,06,29,04,38,9.80
2006,06,29,04,39,9.70
2006,06,29,04,40,9.70
2006,06,29,04,41,9.70
2006,06,29,04,42,9.70
2006,06,29,04,43,9.70
2006,06,29,04,44,9.70
2006,06,29,04,45,9.70
2006,06,29,04,46,9.70
2006,06,29,04,47,9.70
2006,06,29,04,48,9.70
2006,06,29,04,49,9.70
2006,06,29,04,50,9.70
2006,06,29,04,51,9.80
2006,06,29,04,52,9.80
2006,06,29,04,53,9.80
2006,06,29,04,54,9.80
2006,06,29,04,55,9.80
2006,06,29,04,56,9.80
2006,06,29,04,57,9.80
2006,06,29,04,58,9.80
2006,06,29,04,59,9.80
2006,06,29,05,00,9.80
2006,06,29,05,01,9.80
2006,06,29,05,02,9.80
2006,06,29,05,03,9.80
2006,06,29,05,04,9.70
2006,06,29,05,05,9.70
2006,06,29,05,06,9.70
2006,06,29,05,07,9.70
2006,06,29,05,08,9.70
2006,06,29,05,09,9.70
2006,06,29,05,10,9.70
2006,06,29,05,11,9.70
2006,06,29,05,12,9.70
2006,06,29,05,13,9.70
2006,06,29,05,14,9.70
2006,06,29,05,15,9.70
2006,06,29,05,16,9.70
2006,06,29,05,17,9.70
2006,06,29,05,18,9.70
2006,06,29,05,19,9.70
2006,06,29,05,20,9.70
2006,06,29,05,21,9.70
2006,06,29,05,22,9.70
2006,06,29,05,23,9.70
2006,06,29,05,24,9.70
2006,06,29,05,25,9.70
2006,06,29,05,26,9.70
2006,06,29,05,27,9.70
2006,06,29,05,28,9.70
2006,06,29,05,29,9.70
2006,06,29,05,30,9.70
2006,06,29,05,31,9.70
2006,06,29,05,32,9.70
2006,06,29,05,33,9.70
2006,06,29,05,34,9.70
2006,06,29,05,35,9.70
2006,06,29,05,36,9.70
2006,06,29,05,37,9.70
2006,06,29,05,38,9.70
2006,06,29,05,39,9.70
2006,06,29,05,40,9.70
2006,06,29,05,41,9.80
2006,06,29,05,42,9.80
2006,06,29,05,43,9.80
2006,06,29,05,44,9.80
2006,06,29,05,45,9.80
2006,06,29,05,46,9.80
2006,06,29,05,47,9.80
2006,06,29,05,48,9.80
2006,06,29,05,49,9.80
2006,06,29,05,50,9.90
2006,06,29,05,51,9.90
2006,06,29,05,52,9.90
2006,06,29,05,53,9.90
2006,06,29,05,54,9.90
2006,06,29,05,55,9.90
2006,06,29,05,56,10.00
2006,06,29,05,57,10.10
2006,06,29,05,58,10.10
2006,06,29,05,59,10.10
2006,06,29,06,00,10.10
2006,06,29,06,01,10.10
2006,06,29,06,02,10.20
2006,06,29,06,03,10.20
2006,06,29,06,04,10.20
2006,06,29,06,05,10.30
2006,06,29,06,06,10.30
2006,06,29,06,07,10.40
2006,06,29,06,08,10.40
2006,06,29,06,09,10.40
2006,06,29,06,10,10.40
2006,06,29,06,11,10.50
2006,06,29,06,12,10.60
2006,06,29,06,13,10.60
2006,06,29,06,14,10.60
2006,06,29,06,15,10.60
2006,06,29,06,16,10.60
2006,06,29,06,17,10.60
2006,06,29,06,18,10.60
2006,06,29,06,19,10.60
2006,06,29,06,20,10.60
2006,06,29,06,21,10.60
2006,06,29,06,22,10.60
2006,06,29,06,23,10.60
2006,06,29,06,24,10.60
2006,06,29,06,25,10.60
2006,06,29,06,26,10.60
2006,06,29,06,27,10.60
2006,06,29,06,28,10.60
2006,06,29,06,29,10.70
2006,06,29,06,30,10.70
2006,06,29,06,31,10.70
2006,06,29,06,32,10.70
2006,06,29,06,33,10.70
2006,06,29,06,34,10.70
2006,06,29,06,35,10.70
2006,06,29,06,36,10.70
2006,06,29,06,37,10.70
2006,06,29,06,38,10.70
2006,06,29,06,39,10.80
2006,06,29,06,40,10.80
2006,06,29,06,41,10.80
2006,06,29,06,42,10.80
2006,06,29,06,43,10.80
2006,06,29,06,44,10.80
2006,06,29,06,45,10.80
2006,06,29,06,46,10.90
2006,06,29,06,47,10.90
2006,06,29,06,48,10.90
2006,06,29,06,49,10.90
2006,06,29,06,50,11.00
2006,06,29,06,51,11.10
2006,06,29,06,52,11.10
2006,06,29,06,53,11.20
2006,06,29,06,54,11.20
2006,06,29,06,55,11.30
2006,06,29,06,56,11.30
2006,06,29,06,57,11.40
2006,06,29,06,58,11.40
2006,06,29,06,59,11.40
2006,06,29,07,00,11.40
2006,06,29,07,01,11.50
2006,06,29,07,02,11.60
2006,06,29,07,03,11.60
2006,06,29,07,04,11.60
2006,06,29,07,05,11.60
2006,06,29,07,06,11.60
2006,06,29,07,07,11.60
2006,06,29,07,08,11.70
2006,06,29,07,09,11.70
2006,06,29,07,10,11.70
2006,06,29,07,11,11.70
2006,06,29,07,12,11.80
2006,06,29,07,13,11.80
2006,06,29,07,14,11.80
2006,06,29,07,15,11.90
2006,06,29,07,16,11.90
2006,06,29,07,17,11.90
2006,06,29,07,18,12.00
2006,06,29,07,19,12.10
2006,06,29,07,20,12.10
2006,06,29,07,21,12.20
2006,06,29,07,22,12.20
2006,06,29,07,23,12.30
2006,06,29,07,24,12.30
2006,06,29,07,25,12.30
2006,06,29,07,26,12.30
2006,06,29,07,27,12.40
2006,06,29,07,28,12.50
2006,06,29,07,29,12.60
2006,06,29,07,30,12.70
2006,06,29,07,31,12.80
2006,06,29,07,32,12.80
2006,06,29,07,33,13.00
2006,06,29,07,34,13.00
2006,06,29,07,35,13.10
2006,06,29,07,36,13.20
2006,06,29,07,37,13.30
2006,06,29,07,38,13.30
2006,06,29,07,39,13.30
2006,06,29,07,40,13.40
2006,06,29,07,41,13.40
2006,06,29,07,42,13.50
2006,06,29,07,43,13.60
2006,06,29,07,44,13.60
2006,06,29,07,45,13.70
2006,06,29,07,46,13.70
2006,06,29,07,47,13.80
2006,06,29,07,48,13.90
2006,06,29,07,49,14.00
2006,06,29,07,50,14.00
2006,06,29,07,51,14.00
2006,06,29,07,52,14.10
2006,06,29,07,53,14.20
2006,06,29,07,54,14.20
2006,06,29,07,55,14.20
2006,06,29,07,56,14.20
2006,06,29,07,57,14.30
2006,06,29,07,58,14.40
2006,06,29,07,59,14.40
2006,06,29,08,00,14.50
2006,06,29,08,01,14.60
2006,06,29,08,02,14.60
2006,06,29,08,03,14.70
2006,06,29,08,04,14.80
2006,06,29,08,05,14.80
2006,06,29,08,06,14.90
2006,06,29,08,07,15.00
2006,06,29,08,08,15.00
2006,06,29,08,09,15.10
2006,06,29,08,10,15.20
2006,06,29,08,11,15.20
2006,06,29,08,12,15.30
2006,06,29,08,13,15.30
2006,06,29,08,14,15.40
2006,06,29,08,15,15.50
2006,06,29,08,16,15.60
2006,06,29,08,17,15.60
2006,06,29,08,18,15.80
2006,06,29,08,19,15.90
2006,06,29,08,20,16.00
2006,06,29,08,21,16.10
2006,06,29,08,22,16.30
2006,06,29,08,23,16.40
2006,06,29,08,24,16.40
2006,06,29,08,25,16.50
2006,06,29,08,26,16.60
2006,06,29,08,27,16.70
2006,06,29,08,28,16.70
2006,06,29,08,29,16.80
2006,06,29,08,30,16.90
2006,06,29,08,31,17.00
2006,06,29,08,32,17.00
2006,06,29,08,33,17.10
2006,06,29,08,34,17.20
2006,06,29,08,35,17.20
2006,06,29,08,36,17.30
2006,06,29,08,37,17.40
2006,06,29,08,38,17.50
2006,06,29,08,39,17.50
2006,06,29,08,40,17.60
2006,06,29,08,41,17.70
2006,06,29,08,42,17.70
2006,06,29,08,43,17.80
2006,06,29,08,44,17.80
2006,06,29,08,45,17.90
2006,06,29,08,46,17.90
2006,06,29,08,47,17.90
2006,06,29,08,48,17.90
2006,06,29,08,49,18.00
2006,06,29,08,50,18.10
2006,06,29,08,51,18.10
2006,06,29,08,52,18.20
2006,06,29,08,53,18.20
2006,06,29,08,54,18.20
2006,06,29,08,55,18.20
2006,06,29,08,56,18.30
2006,06,29,08,57,18.30
2006,06,29,08,58,18.40
2006,06,29,08,59,18.50
2006,06,29,09,00,18.60
2006,06,29,09,01,18.70
2006,06,29,09,02,18.80
2006,06,29,09,03,18.90
2006,06,29,09,04,18.90
2006,06,29,09,05,19.00
2006,06,29,09,06,19.10
2006,06,29,09,07,19.10
2006,06,29,09,08,19.10
2006,06,29,09,09,19.10
2006,06,29,09,10,19.10
2006,06,29,09,11,19.20
2006,06,29,09,12,19.20
2006,06,29,09,13,19.30
2006,06,29,09,14,19.40
2006,06,29,09,15,19.40
2006,06,29,09,16,19.50
2006,06,29,09,17,19.60
2006,06,29,09,18,19.60
2006,06,29,09,19,19.70
2006,06,29,09,20,19.80
2006,06,29,09,21,19.90
2006,06,29,09,22,20.00
2006,06,29,09,23,20.10
2006,06,29,09,24,20.20
2006,06,29,09,25,20.20
2006,06,29,09,26,20.30
2006,06,29,09,27,20.30
2006,06,29,09,28,20.40
2006,06,29,09,29,20.40
2006,06,29,09,30,20.20
2006,06,29,09,31,20.20
2006,06,29,09,32,20.00
2006,06,29,09,33,19.90
2006,06,29,09,34,19.70
2006,06,29,09,35,19.40
2006,06,29,09,36,19.10
2006,06,29,09,37,18.90
2006,06,29,09,38,18.90
2006,06,29,09,39,18.80
2006,06,29,09,40,18.90
2006,06,29,09,41,18.90
2006,06,29,09,42,19.00
2006,06,29,09,43,19.10
2006,06,29,09,44,19.10
2006,06,29,09,45,18.90
2006,06,29,09,46,18.80
2006,06,29,09,47,18.60
2006,06,29,09,48,18.30
2006,06,29,09,49,18.20
2006,06,29,09,50,18.10
2006,06,29,09,51,17.90
2006,06,29,09,52,17.90
2006,06,29,09,53,17.80
2006,06,29,09,54,17.80
2006,06,29,09,55,17.80
2006,06,29,09,56,17.70
2006,06,29,09,57,17.70
2006,06,29,09,58,17.80
2006,06,29,09,59,17.90
2006,06,29,10,00,17.90
2006,06,29,10,01,18.10
2006,06,29,10,02,18.20
2006,06,29,10,03,18.30
2006,06,29,10,04,18.50
2006,06,29,10,05,18.60
2006,06,29,10,06,18.80
2006,06,29,10,07,19.00
2006,06,29,10,08,19.10
2006,06,29,10,09,19.30
2006,06,29,10,10,19.50
2006,06,29,10,11,19.60
2006,06,29,10,12,19.80
2006,06,29,10,13,19.90
2006,06,29,10,14,20.10
2006,06,29,10,15,20.20
2006,06,29,10,16,20.20
2006,06,29,10,17,20.30
2006,06,29,10,18,20.30
2006,06,29,10,19,20.30
2006,06,29,10,20,20.30
2006,06,29,10,21,20.30
2006,06,29,10,22,20.30
2006,06,29,10,23,20.40
2006,06,29,10,24,20.50
2006,06,29,10,25,20.50
2006,06,29,10,26,20.60
2006,06,29,10,27,20.60
2006,06,29,10,28,20.70
2006,06,29,10,29,20.80
2006,06,29,10,30,20.80
2006,06,29,10,31,20.80
2006,06,29,10,32,20.90
2006,06,29,10,33,21.00
2006,06,29,10,34,21.00
2006,06,29,10,35,21.20
2006,06,29,10,36,21.30
2006,06,29,10,37,21.40
2006,06,29,10,38,21.60
2006,06,29,10,39,21.70
2006,06,29,10,40,21.80
2006,06,29,10,41,21.80
2006,06,29,10,42,21.80
2006,06,29,10,43,21.70
2006,06,29,10,44,21.70
2006,06,29,10,45,21.70
2006,06,29,10,46,21.60
2006,06,29,10,47,21.60
2006,06,29,10,48,21.60
2006,06,29,10,49,21.70
2006,06,29,10,50,21.80
2006,06,29,10,51,21.90
2006,06,29,10,52,21.90
2006,06,29,10,53,22.00
2006,06,29,10,54,22.00
2006,06,29,10,55,22.00
2006,06,29,10,56,21.90
2006,06,29,10,57,21.90
2006,06,29,10,58,21.90
2006,06,29,10,59,22.00
2006,06,29,11,00,22.10
2006,06,29,11,01,22.20
2006,06,29,11,02,22.00
2006,06,29,11,03,21.60
2006,06,29,11,04,21.10
2006,06,29,11,05,20.90
2006,06,29,11,06,20.80
2006,06,29,11,07,20.70
2006,06,29,11,08,20.70
2006,06,29,11,09,20.60
2006,06,29,11,10,20.50
2006,06,29,11,11,20.30
2006,06,29,11,12,20.00
2006,06,29,11,13,19.90
2006,06,29,11,14,19.80
2006,06,29,11,15,19.80
2006,06,29,11,16,19.80
2006,06,29,11,17,19.80
2006,06,29,11,18,19.70
2006,06,29,11,19,19.70
2006,06,29,11,20,19.60
2006,06,29,11,21,19.60
2006,06,29,11,22,19.60
2006,06,29,11,23,19.70
2006,06,29,11,24,19.80
2006,06,29,11,25,19.90
2006,06,29,11,26,20.00
2006,06,29,11,27,19.80
2006,06,29,11,28,19.70
2006,06,29,11,29,19.60
2006,06,29,11,30,19.60
2006,06,29,11,31,19.60
2006,06,29,11,32,19.50
2006,06,29,11,33,19.60
2006,06,29,11,34,19.60
2006,06,29,11,35,19.60
2006,06,29,11,36,19.60
2006,06,29,11,37,19.70
2006,06,29,11,38,19.80
2006,06,29,11,39,19.80
2006,06,29,11,40,19.80
2006,06,29,11,41,19.80
2006,06,29,11,42,19.90
2006,06,29,11,43,19.90
2006,06,29,11,44,19.90
2006,06,29,11,45,19.90
2006,06,29,11,46,20.10
2006,06,29,11,47,20.10
2006,06,29,11,48,20.20
2006,06,29,11,49,20.40
2006,06,29,11,50,20.40
2006,06,29,11,51,20.40
2006,06,29,11,52,20.50
2006,06,29,11,53,20.60
2006,06,29,11,54,20.70
2006,06,29,11,55,20.80
2006,06,29,11,56,21.00
2006,06,29,11,57,21.00
2006,06,29,11,58,21.00
2006,06,29,11,59,21.20
2006,06,29,12,00,21.30
2006,06,29,12,01,21.30
2006,06,29,12,02,21.40
2006,06,29,12,03,21.40
2006,06,29,12,04,21.40
2006,06,29,12,05,21.40
2006,06,29,12,06,21.40
2006,06,29,12,07,21.50
2006,06,29,12,08,21.60
2006,06,29,12,09,21.60
2006,06,29,12,10,21.70
2006,06,29,12,11,21.80
2006,06,29,12,12,22.00
2006,06,29,12,13,22.10
2006,06,29,12,14,22.20
2006,06,29,12,15,22.20
2006,06,29,12,16,22.20
2006,06,29,12,17,22.20
2006,06,29,12,18,22.20
2006,06,29,12,19,22.10
2006,06,29,12,20,21.90
2006,06,29,12,21,21.80
2006,06,29,12,22,21.70
2006,06,29,12,23,21.70
2006,06,29,12,24,21.80
2006,06,29,12,25,21.90
2006,06,29,12,26,22.00
2006,06,29,12,27,22.00
2006,06,29,12,28,22.10
2006,06,29,12,29,22.20
2006,06,29,12,30,22.10
2006,06,29,12,31,22.20
2006,06,29,12,32,22.30
2006,06,29,12,33,22.50
2006,06,29,12,34,22.70
2006,06,29,12,35,22.90
2006,06,29,12,36,22.90
2006,06,29,12,37,23.00
2006,06,29,12,38,23.10
2006,06,29,12,39,23.20
2006,06,29,12,40,23.10
2006,06,29,12,41,22.90
2006,06,29,12,42,22.90
2006,06,29,12,43,22.90
2006,06,29,12,44,22.90
2006,06,29,12,45,22.80
2006,06,29,12,46,22.80
2006,06,29,12,47,22.70
2006,06,29,12,48,22.60
2006,06,29,12,49,22.50
2006,06,29,12,50,22.50
2006,06,29,12,51,22.40
2006,06,29,12,52,22.30
2006,06,29,12,53,22.20
2006,06,29,12,54,22.10
2006,06,29,12,55,22.00
2006,06,29,12,56,21.90
2006,06,29,12,57,21.80
2006,06,29,12,58,21.80
2006,06,29,12,59,21.70
2006,06,29,13,00,21.70
2006,06,29,13,01,21.60
2006,06,29,13,02,21.60
2006,06,29,13,03,21.50
2006,06,29,13,04,21.40
2006,06,29,13,05,21.30
2006,06,29,13,06,21.30
2006,06,29,13,07,21.30
2006,06,29,13,08,21.40
2006,06,29,13,09,21.50
2006,06,29,13,10,21.60
2006,06,29,13,11,21.60
2006,06,29,13,12,21.60
2006,06,29,13,13,21.60
2006,06,29,13,14,21.40
2006,06,29,13,15,21.30
2006,06,29,13,16,21.10
2006,06,29,13,17,21.00
2006,06,29,13,18,21.10
2006,06,29,13,19,21.10
2006,06,29,13,20,21.00
2006,06,29,13,21,20.90
2006,06,29,13,22,20.80
2006,06,29,13,23,20.80
2006,06,29,13,24,20.70
2006,06,29,13,25,20.70
2006,06,29,13,26,20.80
2006,06,29,13,27,20.70
2006,06,29,13,28,20.70
2006,06,29,13,29,20.60
2006,06,29,13,30,20.50
2006,06,29,13,31,20.60
2006,06,29,13,32,20.70
2006,06,29,13,33,20.90
2006,06,29,13,34,21.00
2006,06,29,13,35,21.20
2006,06,29,13,36,21.20
2006,06,29,13,37,21.20
2006,06,29,13,38,21.10
2006,06,29,13,39,21.00
2006,06,29,13,40,20.90
2006,06,29,13,41,20.90
2006,06,29,13,42,20.70
2006,06,29,13,43,20.50
2006,06,29,13,44,20.50
2006,06,29,13,45,20.40
2006,06,29,13,46,20.40
2006,06,29,13,47,20.30
2006,06,29,13,48,20.20
2006,06,29,13,49,20.20
2006,06,29,13,50,20.10
2006,06,29,13,51,20.00
2006,06,29,13,52,20.00
2006,06,29,13,53,20.00
2006,06,29,13,54,19.90
2006,06,29,13,55,20.00
2006,06,29,13,56,20.10
2006,06,29,13,57,20.20
2006,06,29,13,58,20.50
2006,06,29,13,59,20.60
2006,06,29,14,00,20.80
2006,06,29,14,01,21.00
2006,06,29,14,02,21.10
2006,06,29,14,03,21.20
2006,06,29,14,04,21.20
2006,06,29,14,05,21.20
2006,06,29,14,06,21.20
2006,06,29,14,07,21.30
2006,06,29,14,08,21.40
2006,06,29,14,09,21.50
2006,06,29,14,10,21.60
2006,06,29,14,11,21.70
2006,06,29,14,12,21.90
2006,06,29,14,13,22.00
2006,06,29,14,14,22.20
2006,06,29,14,15,22.20
2006,06,29,14,16,22.10
2006,06,29,14,17,22.20
2006,06,29,14,18,22.20
2006,06,29,14,19,22.30
2006,06,29,14,20,22.40
2006,06,29,14,21,22.50
2006,06,29,14,22,22.60
2006,06,29,14,23,22.60
2006,06,29,14,24,22.60
2006,06,29,14,25,22.60
2006,06,29,14,26,22.70
2006,06,29,14,27,22.70
2006,06,29,14,28,22.60
2006,06,29,14,29,22.60
2006,06,29,14,30,22.60
2006,06,29,14,31,22.50
2006,06,29,14,32,22.40
2006,06,29,14,33,22.40
2006,06,29,14,34,22.40
2006,06,29,14,35,22.40
2006,06,29,14,36,22.40
2006,06,29,14,37,22.40
2006,06,29,14,38,22.30
2006,06,29,14,39,22.30
2006,06,29,14,40,22.40
2006,06,29,14,41,22.50
2006,06,29,14,42,22.60
2006,06,29,14,43,22.60
2006,06,29,14,44,22.60
2006,06,29,14,45,22.50
2006,06,29,14,46,22.50
2006,06,29,14,47,22.50
2006,06,29,14,48,22.60
2006,06,29,14,49,22.60
2006,06,29,14,50,22.80
2006,06,29,14,51,23.00
2006,06,29,14,52,23.10
2006,06,29,14,53,23.20
2006,06,29,14,54,23.20
2006,06,29,14,55,23.20
2006,06,29,14,56,23.20
2006,06,29,14,57,23.20
2006,06,29,14,58,23.20
2006,06,29,14,59,23.20
2006,06,29,15,00,23.30
2006,06,29,15,01,23.30
2006,06,29,15,02,23.30
2006,06,29,15,03,23.30
2006,06,29,15,04,23.30
2006,06,29,15,05,23.30
2006,06,29,15,06,23.30
2006,06,29,15,07,23.20
2006,06,29,15,08,23.00
2006,06,29,15,09,22.90
2006,06,29,15,10,22.80
2006,06,29,15,11,22.70
2006,06,29,15,12,22.50
2006,06,29,15,13,22.50
2006,06,29,15,14,22.50
2006,06,29,15,15,22.50
2006,06,29,15,16,22.50
2006,06,29,15,17,22.50
2006,06,29,15,18,22.40
2006,06,29,15,19,22.50
2006,06,29,15,20,22.60
2006,06,29,15,21,22.60
2006,06,29,15,22,22.70
2006,06,29,15,23,22.70
2006,06,29,15,24,22.80
2006,06,29,15,25,22.80
2006,06,29,15,26,22.90
2006,06,29,15,27,23.20
2006,06,29,15,28,23.30
2006,06,29,15,29,23.50
2006,06,29,15,30,23.60
2006,06,29,15,31,23.70
2006,06,29,15,32,23.70
2006,06,29,15,33,23.70
2006,06,29,15,34,23.60
2006,06,29,15,35,23.40
2006,06,29,15,36,23.30
2006,06,29,15,37,23.30
2006,06,29,15,38,23.30
2006,06,29,15,39,23.30
2006,06,29,15,40,23.30
2006,06,29,15,41,23.30
2006,06,29,15,42,23.30
2006,06,29,15,43,23.30
2006,06,29,15,44,23.30
2006,06,29,15,45,23.40
2006,06,29,15,46,23.50
2006,06,29,15,47,23.50
2006,06,29,15,48,23.30
2006,06,29,15,49,23.20
2006,06,29,15,50,23.10
2006,06,29,15,51,23.10
2006,06,29,15,52,23.10
2006,06,29,15,53,23.00
2006,06,29,15,54,22.90
2006,06,29,15,55,22.80
2006,06,29,15,56,22.80
2006,06,29,15,57,22.80
2006,06,29,15,58,22.80
2006,06,29,15,59,22.70
2006,06,29,16,00,22.60
2006,06,29,16,01,22.60
2006,06,29,16,02,22.60
2006,06,29,16,03,22.60
2006,06,29,16,04,22.70
2006,06,29,16,05,22.70
2006,06,29,16,06,22.70
2006,06,29,16,07,22.80
2006,06,29,16,08,22.90
2006,06,29,16,09,22.90
2006,06,29,16,10,22.90
2006,06,29,16,11,22.90
2006,06,29,16,12,23.00
2006,06,29,16,13,23.10
2006,06,29,16,14,23.10
2006,06,29,16,15,23.10
2006,06,29,16,16,23.10
2006,06,29,16,17,23.10
2006,06,29,16,18,23.20
2006,06,29,16,19,23.10
2006,06,29,16,20,23.10
2006,06,29,16,21,23.10
2006,06,29,16,22,23.10
2006,06,29,16,23,23.20
2006,06,29,16,24,23.30
2006,06,29,16,25,23.30
2006,06,29,16,26,23.30
2006,06,29,16,27,23.30
2006,06,29,16,28,23.30
2006,06,29,16,29,23.30
2006,06,29,16,30,23.20
2006,06,29,16,31,23.20
2006,06,29,16,32,23.20
2006,06,29,16,33,23.20
2006,06,29,16,34,23.20
2006,06,29,16,35,23.20
2006,06,29,16,36,23.30
2006,06,29,16,37,23.30
2006,06,29,16,38,23.30
2006,06,29,16,39,23.30
2006,06,29,16,40,23.30
2006,06,29,16,41,23.30
2006,06,29,16,42,23.20
2006,06,29,16,43,23.10
2006,06,29,16,44,23.00
2006,06,29,16,45,22.90
2006,06,29,16,46,22.90
2006,06,29,16,47,22.80
2006,06,29,16,48,22.70
2006,06,29,16,49,22.70
2006,06,29,16,50,22.70
2006,06,29,16,51,22.70
2006,06,29,16,52,22.60
2006,06,29,16,53,22.40
2006,06,29,16,54,22.30
2006,06,29,16,55,22.20
2006,06,29,16,56,22.10
2006,06,29,16,57,22.00
2006,06,29,16,58,22.00
2006,06,29,16,59,21.90
2006,06,29,17,00,21.90
2006,06,29,17,01,21.70
2006,06,29,17,02,21.70
2006,06,29,17,03,21.70
2006,06,29,17,04,21.70
2006,06,29,17,05,21.70
2006,06,29,17,06,21.70
2006,06,29,17,07,21.70
2006,06,29,17,08,21.80
2006,06,29,17,09,21.90
2006,06,29,17,10,21.90
2006,06,29,17,11,21.90
2006,06,29,17,12,21.90
2006,06,29,17,13,21.80
2006,06,29,17,14,21.60
2006,06,29,17,15,21.60
2006,06,29,17,16,21.60
2006,06,29,17,17,21.60
2006,06,29,17,18,21.70
2006,06,29,17,19,21.70
2006,06,29,17,20,21.80
2006,06,29,17,21,21.90
2006,06,29,17,22,21.90
2006,06,29,17,23,22.00